Time,TemperatureF,DewpointF,PressureIn,WindDirection,WindDirectionDegrees,WindSpeedMPH,WindSpeedGustMPH,Humidity,HourlyPrecipIn,Conditions,Clouds,dailyrainin,SoftwareType,DateUTC
2013-05-09 00:03:00,48.1,42.8,29.50,ESE,113,0.0,0.4,82,0.00,,,0.00,WUHU216HW,2013-05-08 23:03:00,
2013-05-09 00:08:00,48.1,43.1,29.50,ESE,113,0.0,0.4,83,0.00,,,0.00,WUHU216HW,2013-05-08 23:08:00,
2013-05-09 00:13:00,48.1,43.1,29.50,ESE,113,0.0,0.0,83,0.00,,,0.00,WUHU216HW,2013-05-08 23:13:00,
2013-05-09 00:18:00,48.1,43.1,29.50,SE,135,0.0,0.0,83,0.00,,,0.00,WUHU216HW,2013-05-08 23:18:00,
2013-05-09 00:23:00,47.9,42.9,29.50,SE,135,0.2,0.2,83,0.00,,,0.00,WUHU216HW,2013-05-08 23:23:00,
2013-05-09 00:28:00,47.9,42.9,29.50,ESE,113,0.0,0.2,83,0.00,,,0.00,WUHU216HW,2013-05-08 23:28:00,
2013-05-09 00:33:00,47.9,42.9,29.50,ESE,113,0.0,0.2,83,0.00,,,0.00,WUHU216HW,2013-05-08 23:33:00,
2013-05-09 00:38:00,47.9,42.9,29.50,SE,135,0.4,0.4,83,0.00,,,0.00,WUHU216HW,2013-05-08 23:38:00,
2013-05-09 00:43:00,48.1,43.1,29.50,SE,135,0.2,0.4,83,0.00,,,0.00,WUHU216HW,2013-05-08 23:43:00,
2013-05-09 00:48:00,48.1,43.1,29.50,ESE,113,0.0,0.4,83,0.00,,,0.00,WUHU216HW,2013-05-08 23:48:00,
2013-05-09 00:53:00,47.9,42.9,29.50,ESE,113,0.0,0.2,83,0.00,,,0.00,WUHU216HW,2013-05-08 23:53:00,
2013-05-09 00:58:00,48.1,43.1,29.50,SSE,158,1.3,1.3,83,0.00,,,0.00,WUHU216HW,2013-05-08 23:58:00,
2013-05-09 01:03:00,48.1,42.8,29.50,South,180,0.7,1.3,82,0.00,,,0.00,WUHU216HW,2013-05-09 00:03:00,
2013-05-09 01:08:00,48.1,42.8,29.50,SSE,158,0.7,1.3,82,0.00,,,0.00,WUHU216HW,2013-05-09 00:08:00,
2013-05-09 01:13:00,48.1,42.8,29.50,East,90,1.3,1.3,82,0.00,,,0.00,WUHU216HW,2013-05-09 00:13:00,
2013-05-09 01:18:00,48.2,42.7,29.50,ESE,113,0.9,2.9,81,0.00,,,0.00,WUHU216HW,2013-05-09 00:18:00,
2013-05-09 01:23:00,48.2,42.7,29.51,SE,135,1.3,2.9,81,0.00,,,0.00,WUHU216HW,2013-05-09 00:23:00,
2013-05-09 01:28:00,48.1,42.5,29.51,SSW,203,0.9,1.3,81,0.00,,,0.00,WUHU216HW,2013-05-09 00:28:00,
2013-05-09 01:33:00,47.9,41.9,29.51,SE,135,1.1,1.3,80,0.00,,,0.00,WUHU216HW,2013-05-09 00:33:00,
2013-05-09 01:38:00,47.9,41.9,29.51,SE,135,0.0,1.1,80,0.00,,,0.00,WUHU216HW,2013-05-09 00:38:00,
2013-05-09 01:43:00,47.7,41.9,29.50,SE,135,0.0,1.1,80,0.00,,,0.00,WUHU216HW,2013-05-09 00:43:00,
2013-05-09 01:48:00,47.7,41.9,29.50,North,0,0.0,0.0,80,0.00,,,0.00,WUHU216HW,2013-05-09 00:48:00,
2013-05-09 01:53:00,47.5,41.7,29.50,East,90,0.0,0.4,80,0.00,,,0.00,WUHU216HW,2013-05-09 00:53:00,
2013-05-09 01:58:00,47.3,41.5,29.50,East,90,0.0,0.4,80,0.00,,,0.00,WUHU216HW,2013-05-09 00:58:00,
2013-05-09 02:03:00,47.2,41.3,29.50,East,90,0.0,0.0,80,0.00,,,0.00,WUHU216HW,2013-05-09 01:03:00,
2013-05-09 02:08:00,47.0,41.1,29.50,East,90,0.0,0.0,80,0.00,,,0.00,WUHU216HW,2013-05-09 01:08:00,
2013-05-09 02:13:00,46.4,40.7,29.50,East,90,0.0,0.0,80,0.00,,,0.00,WUHU216HW,2013-05-09 01:13:00,
2013-05-09 02:18:00,46.3,40.5,29.50,East,90,0.0,0.0,80,0.00,,,0.00,WUHU216HW,2013-05-09 01:18:00,
2013-05-09 02:23:00,46.1,40.3,29.50,East,90,0.0,0.0,80,0.00,,,0.00,WUHU216HW,2013-05-09 01:23:00,
2013-05-09 02:29:00,45.9,40.4,29.50,East,90,0.0,0.0,81,0.00,,,0.00,WUHU216HW,2013-05-09 01:29:00,
2013-05-09 02:38:00,46.1,40.6,29.50,East,90,0.0,0.0,81,0.00,,,0.00,WUHU216HW,2013-05-09 01:38:00,
2013-05-09 02:43:00,46.1,40.6,29.50,East,90,0.0,0.0,81,0.00,,,0.00,WUHU216HW,2013-05-09 01:43:00,
2013-05-09 02:48:00,45.9,40.4,29.50,East,90,0.2,0.2,81,0.00,,,0.00,WUHU216HW,2013-05-09 01:48:00,
2013-05-09 02:53:00,45.7,40.2,29.50,East,90,0.0,0.2,81,0.00,,,0.00,WUHU216HW,2013-05-09 01:53:00,
2013-05-09 02:58:00,45.7,40.2,29.49,East,90,0.0,0.2,81,0.00,,,0.00,WUHU216HW,2013-05-09 01:58:00,
2013-05-09 03:03:00,45.2,39.7,29.50,East,90,0.0,0.0,81,0.00,,,0.00,WUHU216HW,2013-05-09 02:03:00,
2013-05-09 03:08:00,45.0,39.5,29.50,East,90,0.0,0.0,81,0.00,,,0.00,WUHU216HW,2013-05-09 02:08:00,
2013-05-09 03:13:00,45.0,39.9,29.49,East,90,0.0,0.0,82,0.00,,,0.00,WUHU216HW,2013-05-09 02:13:00,
2013-05-09 03:18:00,44.8,39.7,29.49,East,90,0.0,0.0,82,0.00,,,0.00,WUHU216HW,2013-05-09 02:18:00,
2013-05-09 03:23:00,44.3,39.2,29.49,East,90,0.0,0.2,82,0.00,,,0.00,WUHU216HW,2013-05-09 02:23:00,
2013-05-09 03:28:00,44.3,39.4,29.50,East,90,0.9,0.9,83,0.00,,,0.00,WUHU216HW,2013-05-09 02:28:00,
2013-05-09 03:33:00,44.3,39.4,29.49,East,90,0.0,0.9,83,0.00,,,0.00,WUHU216HW,2013-05-09 02:33:00,
2013-05-09 03:38:00,44.3,39.4,29.49,East,90,0.0,0.9,83,0.00,,,0.00,WUHU216HW,2013-05-09 02:38:00,
2013-05-09 03:43:00,44.1,39.6,29.49,East,90,0.2,0.4,84,0.00,,,0.00,WUHU216HW,2013-05-09 02:43:00,
2013-05-09 03:48:00,44.1,39.6,29.49,East,90,0.7,0.7,84,0.00,,,0.00,WUHU216HW,2013-05-09 02:48:00,
2013-05-09 03:53:00,44.3,40.1,29.50,NE,45,0.4,0.7,85,0.00,,,0.00,WUHU216HW,2013-05-09 02:53:00,
2013-05-09 03:59:00,44.6,40.2,29.49,NE,45,0.0,0.7,84,0.00,,,0.00,WUHU216HW,2013-05-09 02:59:00,
2013-05-09 04:04:00,44.8,40.3,29.49,East,90,0.0,0.4,84,0.00,,,0.00,WUHU216HW,2013-05-09 03:04:00,
2013-05-09 04:09:00,45.0,40.5,29.49,East,90,0.4,0.4,84,0.00,,,0.00,WUHU216HW,2013-05-09 03:09:00,
2013-05-09 04:14:00,45.0,40.5,29.49,East,90,0.4,0.4,84,0.00,,,0.00,WUHU216HW,2013-05-09 03:14:00,
2013-05-09 04:19:00,45.4,40.5,29.49,SE,135,0.2,1.1,83,0.00,,,0.00,WUHU216HW,2013-05-09 03:19:00,
2013-05-09 04:24:00,45.4,40.5,29.49,SE,135,1.8,1.8,83,0.00,,,0.00,WUHU216HW,2013-05-09 03:24:00,
2013-05-09 04:29:00,45.5,40.7,29.49,SE,135,1.1,1.8,83,0.00,,,0.00,WUHU216HW,2013-05-09 03:29:00,
2013-05-09 04:34:00,45.5,40.4,29.49,East,90,0.0,1.8,82,0.00,,,0.00,WUHU216HW,2013-05-09 03:34:00,
2013-05-09 04:39:00,45.7,40.6,29.49,ESE,113,0.0,0.7,82,0.00,,,0.00,WUHU216HW,2013-05-09 03:39:00,
2013-05-09 04:44:00,45.7,40.6,29.49,ESE,113,0.0,0.0,82,0.00,,,0.00,WUHU216HW,2013-05-09 03:44:00,
2013-05-09 04:49:00,45.5,40.4,29.49,ESE,113,0.0,0.0,82,0.00,,,0.00,WUHU216HW,2013-05-09 03:49:00,
2013-05-09 04:54:00,45.5,40.4,29.49,ESE,113,0.9,0.9,82,0.00,,,0.00,WUHU216HW,2013-05-09 03:54:00,
2013-05-09 04:59:00,45.5,40.4,29.48,ESE,113,0.2,0.9,82,0.00,,,0.00,WUHU216HW,2013-05-09 03:59:00,
2013-05-09 05:04:00,45.5,40.4,29.48,East,90,0.4,0.9,82,0.00,,,0.00,WUHU216HW,2013-05-09 04:04:00,
2013-05-09 05:09:00,45.5,40.4,29.48,ESE,113,0.2,0.4,82,0.00,,,0.00,WUHU216HW,2013-05-09 04:09:00,
2013-05-09 05:14:00,45.5,40.4,29.48,ESE,113,0.7,0.7,82,0.00,,,0.00,WUHU216HW,2013-05-09 04:14:00,
2013-05-09 05:19:00,45.5,40.4,29.48,SE,135,1.6,1.6,82,0.00,,,0.00,WUHU216HW,2013-05-09 04:19:00,
2013-05-09 05:24:00,45.5,40.4,29.48,SE,135,0.2,1.6,82,0.00,,,0.00,WUHU216HW,2013-05-09 04:24:00,
2013-05-09 05:29:00,45.4,40.2,29.48,ESE,113,0.9,1.6,82,0.00,,,0.00,WUHU216HW,2013-05-09 04:29:00,
2013-05-09 05:34:00,45.2,40.1,29.48,ESE,113,0.4,0.9,82,0.00,,,0.00,WUHU216HW,2013-05-09 04:34:00,
2013-05-09 05:39:00,44.8,39.7,29.48,ESE,113,0.0,0.9,82,0.00,,,0.00,WUHU216HW,2013-05-09 04:39:00,
2013-05-09 05:44:00,44.6,39.5,29.48,ESE,113,0.9,0.9,82,0.00,,,0.00,WUHU216HW,2013-05-09 04:44:00,
2013-05-09 05:49:00,44.6,39.5,29.48,ESE,113,0.4,0.9,82,0.00,,,0.00,WUHU216HW,2013-05-09 04:49:00,
2013-05-09 05:54:00,44.6,39.5,29.48,ESE,113,0.0,0.9,82,0.00,,,0.00,WUHU216HW,2013-05-09 04:54:00,
2013-05-09 05:59:00,44.6,39.5,29.48,ESE,113,0.0,0.4,82,0.00,,,0.00,WUHU216HW,2013-05-09 04:59:00,
2013-05-09 06:04:00,44.6,39.5,29.48,ESE,113,0.0,0.4,82,0.00,,,0.00,WUHU216HW,2013-05-09 05:04:00,
2013-05-09 06:09:00,44.6,39.5,29.48,ESE,113,0.0,0.4,82,0.00,,,0.00,WUHU216HW,2013-05-09 05:09:00,
2013-05-09 06:14:00,44.8,39.7,29.47,ESE,113,0.0,0.0,82,0.00,,,0.00,WUHU216HW,2013-05-09 05:14:00,
2013-05-09 06:19:00,44.8,39.7,29.47,ESE,113,0.0,0.0,82,0.00,,,0.00,WUHU216HW,2013-05-09 05:19:00,
2013-05-09 06:24:00,45.0,39.5,29.47,ESE,113,0.2,0.2,81,0.00,,,0.00,WUHU216HW,2013-05-09 05:24:00,
2013-05-09 06:29:00,45.4,39.2,29.47,ESE,113,2.5,2.5,79,0.00,,,0.00,WUHU216HW,2013-05-09 05:29:00,
2013-05-09 06:34:00,45.7,40.0,29.47,ESE,113,0.4,2.5,80,0.00,,,0.00,WUHU216HW,2013-05-09 05:34:00,
2013-05-09 06:39:00,46.1,40.0,29.47,SSE,158,4.3,4.3,79,0.00,,,0.00,WUHU216HW,2013-05-09 05:39:00,
2013-05-09 06:44:00,46.3,39.8,29.47,SE,135,0.4,4.3,78,0.00,,,0.00,WUHU216HW,2013-05-09 05:44:00,
2013-05-09 06:49:00,46.3,39.8,29.47,SE,135,1.8,4.3,78,0.00,,,0.00,WUHU216HW,2013-05-09 05:49:00,
2013-05-09 06:54:00,46.4,39.7,29.47,ESE,113,0.4,1.8,77,0.00,,,0.00,WUHU216HW,2013-05-09 05:54:00,
2013-05-09 06:59:00,46.4,40.0,29.47,SE,135,0.0,1.8,78,0.00,,,0.00,WUHU216HW,2013-05-09 05:59:00,
2013-05-09 07:04:00,46.4,40.0,29.47,ESE,113,0.0,0.4,78,0.00,,,0.00,WUHU216HW,2013-05-09 06:04:00,
2013-05-09 07:09:00,46.6,39.8,29.47,SE,135,0.4,0.4,77,0.00,,,0.00,WUHU216HW,2013-05-09 06:09:00,
2013-05-09 07:14:00,46.4,40.0,29.47,East,90,0.9,1.3,78,0.00,,,0.00,WUHU216HW,2013-05-09 06:14:00,
2013-05-09 07:19:00,46.4,39.7,29.47,SSE,158,1.1,1.3,77,0.00,,,0.00,WUHU216HW,2013-05-09 06:19:00,
2013-05-09 07:24:00,46.6,39.8,29.47,ESE,113,1.1,1.1,77,0.00,,,0.00,WUHU216HW,2013-05-09 06:24:00,
2013-05-09 07:29:00,46.6,39.8,29.47,SE,135,0.4,1.1,77,0.00,,,0.00,WUHU216HW,2013-05-09 06:29:00,
2013-05-09 07:34:00,46.6,39.8,29.47,East,90,1.8,1.8,77,0.00,,,0.00,WUHU216HW,2013-05-09 06:34:00,
2013-05-09 07:39:00,46.6,40.1,29.47,SE,135,1.6,1.8,78,0.00,,,0.00,WUHU216HW,2013-05-09 06:39:00,
2013-05-09 07:44:00,46.4,39.7,29.47,ESE,113,2.7,2.7,77,0.00,,,0.00,WUHU216HW,2013-05-09 06:44:00,
2013-05-09 07:49:00,46.6,39.5,29.47,SE,135,1.1,2.7,76,0.00,,,0.00,WUHU216HW,2013-05-09 06:49:00,
2013-05-09 07:54:00,46.8,40.0,29.47,SE,135,1.6,2.2,77,0.00,,,0.00,WUHU216HW,2013-05-09 06:54:00,
2013-05-09 07:59:00,47.0,40.1,29.47,ESE,113,2.9,2.9,77,0.00,,,0.00,WUHU216HW,2013-05-09 06:59:00,
2013-05-09 08:04:00,47.5,40.6,29.46,SE,135,1.8,2.9,77,0.00,,,0.00,WUHU216HW,2013-05-09 07:04:00,
2013-05-09 08:09:00,48.1,41.1,29.46,ESE,113,4.3,4.3,77,0.00,,,0.00,WUHU216HW,2013-05-09 07:09:00,
2013-05-09 08:14:00,48.4,41.1,29.47,NE,45,5.4,5.4,76,0.00,,,0.00,WUHU216HW,2013-05-09 07:14:00,
2013-05-09 08:19:00,48.2,41.0,29.47,SE,135,3.4,5.4,76,0.00,,,0.00,WUHU216HW,2013-05-09 07:19:00,
2013-05-09 08:24:00,47.9,40.6,29.47,SSE,158,3.4,5.4,76,0.00,,,0.00,WUHU216HW,2013-05-09 07:24:00,
2013-05-09 08:29:00,47.9,40.6,29.47,ENE,68,1.1,3.4,76,0.00,,,0.00,WUHU216HW,2013-05-09 07:29:00,
2013-05-09 08:34:00,48.8,41.9,29.47,East,90,2.5,5.4,77,0.00,,,0.00,WUHU216HW,2013-05-09 07:34:00,
2013-05-09 08:39:00,50.0,41.7,29.46,East,90,2.7,5.4,73,0.00,,,0.00,WUHU216HW,2013-05-09 07:39:00,
2013-05-09 08:44:00,49.9,41.5,29.46,East,90,2.5,2.7,73,0.00,,,0.00,WUHU216HW,2013-05-09 07:44:00,
2013-05-09 08:49:00,49.5,41.1,29.46,ESE,113,4.9,4.9,73,0.00,,,0.00,WUHU216HW,2013-05-09 07:49:00,
2013-05-09 08:54:00,49.3,41.0,29.46,SE,135,4.0,4.9,73,0.00,,,0.00,WUHU216HW,2013-05-09 07:54:00,
2013-05-09 08:59:00,49.9,41.2,29.46,ESE,113,3.4,4.9,72,0.00,,,0.00,WUHU216HW,2013-05-09 07:59:00,
2013-05-09 09:04:00,49.7,41.1,29.46,ESE,113,5.4,5.4,72,0.00,,,0.00,WUHU216HW,2013-05-09 08:04:00,
2013-05-09 09:09:00,49.3,40.3,29.46,SSE,158,4.5,5.4,71,0.00,,,0.00,WUHU216HW,2013-05-09 08:09:00,
2013-05-09 09:14:00,49.5,40.9,29.46,ENE,68,4.7,5.4,72,0.00,,,0.00,WUHU216HW,2013-05-09 08:14:00,
2013-05-09 09:19:00,49.7,40.7,29.45,SE,135,4.5,4.7,71,0.00,,,0.00,WUHU216HW,2013-05-09 08:19:00,
2013-05-09 09:24:00,49.7,41.1,29.45,ESE,113,4.3,4.7,72,0.00,,,0.00,WUHU216HW,2013-05-09 08:24:00,
2013-05-09 09:29:00,49.5,40.5,29.45,ESE,113,2.7,4.5,71,0.00,,,0.00,WUHU216HW,2013-05-09 08:29:00,
2013-05-09 09:34:00,49.5,40.1,29.45,SSE,158,6.3,6.3,70,0.00,,,0.00,WUHU216HW,2013-05-09 08:34:00,
2013-05-09 09:39:00,49.7,40.3,29.45,ESE,113,7.4,7.4,70,0.00,,,0.00,WUHU216HW,2013-05-09 08:39:00,
2013-05-09 09:44:00,50.0,40.3,29.45,East,90,4.0,7.4,69,0.00,,,0.00,WUHU216HW,2013-05-09 08:44:00,
2013-05-09 09:49:00,50.2,40.5,29.45,SE,135,2.9,4.0,69,0.00,,,0.00,WUHU216HW,2013-05-09 08:49:00,
2013-05-09 09:54:00,50.4,40.2,29.44,ESE,113,6.5,6.5,68,0.00,,,0.00,WUHU216HW,2013-05-09 08:54:00,
2013-05-09 09:59:00,51.8,41.7,29.44,SE,135,8.5,8.5,68,0.00,,,0.00,WUHU216HW,2013-05-09 08:59:00,
2013-05-09 10:04:00,51.8,40.9,29.44,SE,135,6.0,8.5,66,0.00,,,0.00,WUHU216HW,2013-05-09 09:04:00,
2013-05-09 10:09:00,51.5,40.5,29.44,ESE,113,6.0,8.5,66,0.00,,,0.00,WUHU216HW,2013-05-09 09:09:00,
2013-05-09 10:14:00,50.4,39.9,29.44,ENE,68,6.9,6.9,67,0.00,,,0.00,WUHU216HW,2013-05-09 09:14:00,
2013-05-09 10:19:00,50.0,39.9,29.44,SSE,158,1.3,6.9,68,0.00,,,0.00,WUHU216HW,2013-05-09 09:19:00,
2013-05-09 10:24:00,49.9,39.7,29.44,ESE,113,6.0,6.9,68,0.00,,,0.00,WUHU216HW,2013-05-09 09:24:00,
2013-05-09 10:29:00,49.9,39.7,29.44,SSE,158,3.4,6.0,68,0.00,,,0.00,WUHU216HW,2013-05-09 09:29:00,
2013-05-09 10:34:00,49.7,39.5,29.44,SSE,158,4.7,6.0,68,0.00,,,0.00,WUHU216HW,2013-05-09 09:34:00,
2013-05-09 10:39:00,49.9,39.7,29.44,SE,135,3.4,4.7,68,0.00,,,0.00,WUHU216HW,2013-05-09 09:39:00,
2013-05-09 10:44:00,50.0,40.3,29.44,East,90,4.3,4.7,69,0.00,,,0.00,WUHU216HW,2013-05-09 09:44:00,
2013-05-09 10:49:00,49.9,39.7,29.44,SW,225,4.5,4.7,68,0.00,,,0.00,WUHU216HW,2013-05-09 09:49:00,
2013-05-09 10:54:00,49.9,40.2,29.44,SSE,158,3.4,4.7,69,0.00,,,0.00,WUHU216HW,2013-05-09 09:54:00,
2013-05-09 10:59:00,49.9,40.2,29.43,ESE,113,5.4,5.4,69,0.00,,,0.00,WUHU216HW,2013-05-09 09:59:00,
2013-05-09 11:04:00,50.0,40.3,29.43,ESE,113,4.7,5.4,69,0.00,,,0.00,WUHU216HW,2013-05-09 10:04:00,
2013-05-09 11:09:00,49.7,39.5,29.43,East,90,9.8,9.8,68,0.00,,,0.00,WUHU216HW,2013-05-09 10:09:00,
2013-05-09 11:14:00,49.7,39.5,29.43,ENE,68,4.5,9.8,68,0.00,,,0.00,WUHU216HW,2013-05-09 10:14:00,
2013-05-09 11:19:00,49.7,40.0,29.43,SE,135,5.1,9.8,69,0.00,,,0.00,WUHU216HW,2013-05-09 10:19:00,
2013-05-09 11:24:00,49.7,40.0,29.43,ESE,113,4.5,7.4,69,0.00,,,0.00,WUHU216HW,2013-05-09 10:24:00,
2013-05-09 11:29:00,49.7,40.3,29.43,SE,135,3.4,7.4,70,0.00,,,0.00,WUHU216HW,2013-05-09 10:29:00,
2013-05-09 11:34:00,50.0,40.3,29.43,SE,135,7.2,7.2,69,0.00,,,0.00,WUHU216HW,2013-05-09 10:34:00,
2013-05-09 11:39:00,50.9,42.0,29.42,SE,135,4.5,7.2,71,0.00,,,0.00,WUHU216HW,2013-05-09 10:39:00,
2013-05-09 11:44:00,51.1,41.0,29.42,ESE,113,4.7,4.7,68,0.00,,,0.00,WUHU216HW,2013-05-09 10:44:00,
2013-05-09 11:49:00,51.1,41.0,29.42,SE,135,6.3,6.3,68,0.00,,,0.00,WUHU216HW,2013-05-09 10:49:00,
2013-05-09 11:54:00,51.1,41.3,29.42,ESE,113,4.0,6.3,69,0.00,,,0.00,WUHU216HW,2013-05-09 10:54:00,
2013-05-09 11:59:00,50.9,40.8,29.42,SSE,158,4.5,6.9,68,0.00,,,0.00,WUHU216HW,2013-05-09 10:59:00,
2013-05-09 12:04:00,51.1,41.0,29.42,South,180,5.1,6.9,68,0.00,,,0.00,WUHU216HW,2013-05-09 11:04:00,
2013-05-09 12:09:00,50.9,40.8,29.42,SSE,158,4.7,5.1,68,0.00,,,0.00,WUHU216HW,2013-05-09 11:09:00,
2013-05-09 12:14:00,50.4,41.0,29.42,East,90,6.0,6.0,70,0.00,,,0.00,WUHU216HW,2013-05-09 11:14:00,
2013-05-09 12:19:00,50.4,40.2,29.42,SSE,158,6.0,6.0,68,0.00,,,0.00,WUHU216HW,2013-05-09 11:19:00,
2013-05-09 12:24:00,50.2,40.5,29.42,ESE,113,4.9,6.0,69,0.00,,,0.00,WUHU216HW,2013-05-09 11:24:00,
2013-05-09 12:29:00,50.4,40.2,29.42,SSE,158,6.5,6.5,68,0.00,,,0.00,WUHU216HW,2013-05-09 11:29:00,
2013-05-09 12:34:00,50.4,40.2,29.41,ESE,113,5.4,6.5,68,0.00,,,0.00,WUHU216HW,2013-05-09 11:34:00,
2013-05-09 12:39:00,50.4,40.7,29.41,ESE,113,7.4,7.4,69,0.00,,,0.00,WUHU216HW,2013-05-09 11:39:00,
2013-05-09 12:44:00,50.6,40.4,29.41,SSE,158,6.0,7.4,68,0.00,,,0.00,WUHU216HW,2013-05-09 11:44:00,
2013-05-09 12:49:00,50.4,40.7,29.41,ESE,113,5.6,7.4,69,0.00,,,0.00,WUHU216HW,2013-05-09 11:49:00,
2013-05-09 12:54:00,50.4,41.0,29.41,East,90,1.8,5.6,70,0.00,,,0.00,WUHU216HW,2013-05-09 11:54:00,
2013-05-09 12:59:00,50.4,41.0,29.41,ESE,113,5.4,5.6,70,0.00,,,0.00,WUHU216HW,2013-05-09 11:59:00,
2013-05-09 13:04:00,50.6,40.4,29.40,ESE,113,3.4,5.4,68,0.00,,,0.00,WUHU216HW,2013-05-09 12:04:00,
2013-05-09 13:09:00,50.6,40.9,29.40,SSE,158,4.7,5.4,69,0.00,,,0.00,WUHU216HW,2013-05-09 12:09:00,
2013-05-09 13:14:00,50.6,40.9,29.40,ESE,113,1.8,4.7,69,0.00,,,0.00,WUHU216HW,2013-05-09 12:14:00,
2013-05-09 13:19:00,50.6,40.9,29.40,SSE,158,4.0,4.7,69,0.00,,,0.00,WUHU216HW,2013-05-09 12:19:00,
2013-05-09 13:24:00,50.8,40.6,29.40,ESE,113,5.4,5.4,68,0.00,,,0.00,WUHU216HW,2013-05-09 12:24:00,
2013-05-09 13:29:00,50.8,40.6,29.40,East,90,7.4,7.4,68,0.00,,,0.00,WUHU216HW,2013-05-09 12:29:00,
2013-05-09 13:34:00,50.6,40.9,29.40,ESE,113,3.1,7.4,69,0.00,,,0.00,WUHU216HW,2013-05-09 12:34:00,
2013-05-09 13:39:00,50.8,41.4,29.40,ESE,113,1.3,7.4,70,0.00,,,0.00,WUHU216HW,2013-05-09 12:39:00,
2013-05-09 13:44:00,50.9,40.8,29.40,SE,135,5.6,5.6,68,0.00,,,0.00,WUHU216HW,2013-05-09 12:44:00,
2013-05-09 13:49:00,50.9,40.8,29.39,East,90,5.1,5.6,68,0.00,,,0.00,WUHU216HW,2013-05-09 12:49:00,
2013-05-09 13:54:00,50.9,40.8,29.39,SSE,158,5.4,5.6,68,0.00,,,0.00,WUHU216HW,2013-05-09 12:54:00,
2013-05-09 13:59:00,51.3,41.1,29.39,ENE,68,2.5,5.4,68,0.00,,,0.00,WUHU216HW,2013-05-09 12:59:00,
2013-05-09 14:04:00,51.5,41.3,29.39,SE,135,3.1,5.1,68,0.00,,,0.00,WUHU216HW,2013-05-09 13:04:00,
2013-05-09 14:09:00,51.7,41.5,29.38,East,90,7.2,7.2,68,0.00,,,0.00,WUHU216HW,2013-05-09 13:09:00,
2013-05-09 14:14:00,51.8,41.7,29.38,East,90,4.7,7.2,68,0.00,,,0.00,WUHU216HW,2013-05-09 13:14:00,
2013-05-09 14:19:00,52.2,41.6,29.38,East,90,1.8,7.2,67,0.00,,,0.00,WUHU216HW,2013-05-09 13:19:00,
2013-05-09 14:24:00,52.2,41.6,29.37,SE,135,3.4,4.0,67,0.00,,,0.00,WUHU216HW,2013-05-09 13:24:00,
2013-05-09 14:30:00,52.2,41.1,29.37,SE,135,5.8,5.8,66,0.00,,,0.00,WUHU216HW,2013-05-09 13:30:00,
2013-05-09 14:35:00,52.0,40.6,29.37,East,90,4.9,5.8,65,0.00,,,0.00,WUHU216HW,2013-05-09 13:35:00,
2013-05-09 14:40:00,52.0,41.0,29.37,ENE,68,1.1,5.4,66,0.00,,,0.00,WUHU216HW,2013-05-09 13:40:00,
2013-05-09 14:45:00,52.0,41.4,29.37,ESE,113,1.3,4.9,67,0.00,,,0.00,WUHU216HW,2013-05-09 13:45:00,
2013-05-09 14:50:00,52.2,41.1,29.37,ESE,113,7.2,7.2,66,0.00,,,0.00,WUHU216HW,2013-05-09 13:50:00,
2013-05-09 14:55:00,52.0,41.0,29.36,East,90,5.4,7.2,66,0.00,,,0.00,WUHU216HW,2013-05-09 13:55:00,
2013-05-09 15:00:00,52.2,41.6,29.36,SSE,158,2.0,5.4,67,0.00,,,0.00,WUHU216HW,2013-05-09 14:00:00,
2013-05-09 15:05:00,52.0,41.9,29.36,East,90,3.4,5.4,68,0.00,,,0.00,WUHU216HW,2013-05-09 14:05:00,
2013-05-09 15:10:00,51.8,41.7,29.36,NNW,338,2.5,3.4,68,0.00,,,0.00,WUHU216HW,2013-05-09 14:10:00,
2013-05-09 15:15:00,51.8,41.7,29.35,East,90,4.5,4.5,68,0.00,,,0.00,WUHU216HW,2013-05-09 14:15:00,
2013-05-09 15:20:00,51.5,41.3,29.35,NE,45,4.0,4.5,68,0.00,,,0.00,WUHU216HW,2013-05-09 14:20:00,
2013-05-09 15:25:00,51.5,41.3,29.35,SE,135,2.5,4.5,68,0.00,,,0.00,WUHU216HW,2013-05-09 14:25:00,
2013-05-09 15:30:00,51.3,41.1,29.35,ENE,68,4.3,4.3,68,0.00,,,0.00,WUHU216HW,2013-05-09 14:30:00,
2013-05-09 15:35:00,51.3,41.1,29.34,SE,135,1.8,4.3,68,0.00,,,0.00,WUHU216HW,2013-05-09 14:35:00,
2013-05-09 15:40:00,51.5,41.3,29.34,NE,45,4.9,4.9,68,0.00,,,0.00,WUHU216HW,2013-05-09 14:40:00,
2013-05-09 15:45:00,51.5,41.3,29.34,ENE,68,1.8,4.9,68,0.00,,,0.00,WUHU216HW,2013-05-09 14:45:00,
2013-05-09 15:50:00,51.5,41.3,29.34,ENE,68,6.3,6.3,68,0.00,,,0.00,WUHU216HW,2013-05-09 14:50:00,
2013-05-09 15:55:00,51.3,41.9,29.34,ESE,113,2.2,6.3,70,0.00,,,0.00,WUHU216HW,2013-05-09 14:55:00,
2013-05-09 16:00:00,50.4,42.8,29.34,ESE,113,4.3,6.3,75,0.01,,,0.01,WUHU216HW,2013-05-09 15:00:00,
2013-05-09 16:05:00,50.2,42.9,29.34,East,90,1.8,4.3,76,0.02,,,0.02,WUHU216HW,2013-05-09 15:05:00,
2013-05-09 16:10:00,50.0,43.4,29.34,ESE,113,4.5,4.5,78,0.02,,,0.02,WUHU216HW,2013-05-09 15:10:00,
2013-05-09 16:15:00,49.7,43.7,29.34,ESE,113,2.0,4.5,80,0.02,,,0.02,WUHU216HW,2013-05-09 15:15:00,
2013-05-09 16:20:00,49.3,43.7,29.34,ESE,113,2.5,2.5,81,0.03,,,0.03,WUHU216HW,2013-05-09 15:20:00,
2013-05-09 16:25:00,49.3,43.7,29.34,East,90,2.2,2.5,81,0.03,,,0.03,WUHU216HW,2013-05-09 15:25:00,
2013-05-09 16:30:00,49.1,43.8,29.34,ESE,113,5.4,5.4,82,0.04,,,0.04,WUHU216HW,2013-05-09 15:30:00,
2013-05-09 16:35:00,49.0,43.7,29.34,ESE,113,4.5,5.4,82,0.04,,,0.04,WUHU216HW,2013-05-09 15:35:00,
2013-05-09 16:40:00,49.0,43.7,29.34,NNE,23,2.7,5.4,82,0.05,,,0.05,WUHU216HW,2013-05-09 15:40:00,
2013-05-09 16:45:00,48.8,43.8,29.34,East,90,1.8,5.1,83,0.05,,,0.05,WUHU216HW,2013-05-09 15:45:00,
2013-05-09 16:50:00,48.6,43.7,29.34,ESE,113,2.5,5.1,83,0.06,,,0.06,WUHU216HW,2013-05-09 15:50:00,
2013-05-09 16:55:00,48.6,43.9,29.33,ESE,113,2.2,2.5,84,0.06,,,0.06,WUHU216HW,2013-05-09 15:55:00,
2013-05-09 17:00:00,48.6,43.7,29.33,ESE,113,2.0,2.5,83,0.05,,,0.06,WUHU216HW,2013-05-09 16:00:00,
2013-05-09 17:05:00,48.6,43.7,29.33,NE,45,2.5,5.8,83,0.04,,,0.06,WUHU216HW,2013-05-09 16:05:00,
2013-05-09 17:10:00,48.6,43.7,29.33,NE,45,1.1,5.8,83,0.04,,,0.06,WUHU216HW,2013-05-09 16:10:00,
2013-05-09 17:15:00,48.6,43.9,29.33,East,90,2.2,2.5,84,0.05,,,0.07,WUHU216HW,2013-05-09 16:15:00,
2013-05-09 17:20:00,48.4,43.7,29.33,ENE,68,2.5,3.1,84,0.04,,,0.07,WUHU216HW,2013-05-09 16:20:00,
2013-05-09 17:25:00,48.4,43.5,29.33,East,90,1.1,3.1,83,0.03,,,0.07,WUHU216HW,2013-05-09 16:25:00,
2013-05-09 17:30:00,48.4,43.5,29.33,SE,135,3.6,3.6,83,0.04,,,0.08,WUHU216HW,2013-05-09 16:30:00,
2013-05-09 17:35:00,48.2,43.3,29.33,SE,135,2.5,3.6,83,0.04,,,0.08,WUHU216HW,2013-05-09 16:35:00,
2013-05-09 17:40:00,48.2,43.3,29.33,SE,135,1.6,3.6,83,0.03,,,0.08,WUHU216HW,2013-05-09 16:40:00,
2013-05-09 17:45:00,48.2,43.6,29.32,SSE,158,2.9,2.9,84,0.03,,,0.08,WUHU216HW,2013-05-09 16:45:00,
2013-05-09 17:50:00,48.2,43.9,29.32,East,90,1.1,2.9,85,0.03,,,0.09,WUHU216HW,2013-05-09 16:50:00,
2013-05-09 17:55:00,48.1,43.7,29.32,ESE,113,1.8,3.1,85,0.04,,,0.09,WUHU216HW,2013-05-09 16:55:00,
2013-05-09 18:00:00,48.1,44.1,29.32,SE,135,4.0,4.0,86,0.04,,,0.10,WUHU216HW,2013-05-09 17:00:00,
2013-05-09 18:05:00,47.9,43.9,29.32,NE,45,1.8,4.0,86,0.04,,,0.10,WUHU216HW,2013-05-09 17:05:00,
2013-05-09 18:10:00,47.9,43.9,29.32,ESE,113,1.1,4.0,86,0.05,,,0.10,WUHU216HW,2013-05-09 17:10:00,
2013-05-09 18:15:00,47.9,43.9,29.32,East,90,1.8,2.0,86,0.04,,,0.11,WUHU216HW,2013-05-09 17:15:00,
2013-05-09 18:20:00,47.9,43.9,29.32,ENE,68,3.4,3.4,86,0.04,,,0.11,WUHU216HW,2013-05-09 17:20:00,
2013-05-09 18:25:00,47.7,43.4,29.32,ESE,113,3.4,3.4,85,0.04,,,0.11,WUHU216HW,2013-05-09 17:25:00,
2013-05-09 18:30:00,47.7,43.4,29.32,SE,135,2.7,3.4,85,0.04,,,0.12,WUHU216HW,2013-05-09 17:30:00,
2013-05-09 18:35:00,47.7,43.4,29.32,West,270,2.5,3.4,85,0.04,,,0.12,WUHU216HW,2013-05-09 17:35:00,
2013-05-09 18:40:00,47.7,43.8,29.32,ENE,68,3.4,3.4,86,0.04,,,0.12,WUHU216HW,2013-05-09 17:40:00,
2013-05-09 18:45:00,47.7,43.8,29.32,ESE,113,1.8,3.4,86,0.04,,,0.13,WUHU216HW,2013-05-09 17:45:00,
2013-05-09 18:50:00,47.7,43.8,29.32,ENE,68,1.3,3.4,86,0.04,,,0.13,WUHU216HW,2013-05-09 17:50:00,
2013-05-09 18:55:00,47.5,43.6,29.33,ENE,68,2.7,2.7,86,0.03,,,0.13,WUHU216HW,2013-05-09 17:55:00,
2013-05-09 19:00:00,47.5,43.8,29.33,East,90,2.9,2.9,87,0.03,,,0.13,WUHU216HW,2013-05-09 18:00:00,
2013-05-09 19:05:00,47.3,43.7,29.33,SE,135,2.9,2.9,87,0.04,,,0.14,WUHU216HW,2013-05-09 18:05:00,
2013-05-09 19:10:00,47.2,43.6,29.33,ENE,68,1.3,2.9,87,0.04,,,0.15,WUHU216HW,2013-05-09 18:10:00,
2013-05-09 19:15:00,47.2,43.8,29.33,East,90,2.7,2.9,88,0.05,,,0.16,WUHU216HW,2013-05-09 18:15:00,
2013-05-09 19:20:00,47.2,43.8,29.33,NNE,23,1.3,2.7,88,0.05,,,0.16,WUHU216HW,2013-05-09 18:20:00,
2013-05-09 19:25:00,47.0,43.7,29.33,East,90,1.1,2.7,88,0.06,,,0.17,WUHU216HW,2013-05-09 18:25:00,
2013-05-09 19:30:00,46.8,43.8,29.33,ESE,113,1.3,1.3,89,0.07,,,0.19,WUHU216HW,2013-05-09 18:30:00,
2013-05-09 19:35:00,46.6,43.7,29.33,ENE,68,0.9,1.3,89,0.08,,,0.20,WUHU216HW,2013-05-09 18:35:00,
2013-05-09 19:40:00,46.4,43.5,29.33,SE,135,1.1,1.8,89,0.08,,,0.20,WUHU216HW,2013-05-09 18:40:00,
2013-05-09 19:45:00,46.4,43.5,29.33,ESE,113,2.5,2.5,89,0.09,,,0.21,WUHU216HW,2013-05-09 18:45:00,
2013-05-09 19:50:00,46.3,43.3,29.34,ESE,113,2.5,2.5,89,0.10,,,0.23,WUHU216HW,2013-05-09 18:50:00,
2013-05-09 19:55:00,46.3,43.6,29.33,East,90,0.4,2.5,90,0.11,,,0.24,WUHU216HW,2013-05-09 18:55:00,
2013-05-09 20:00:00,46.1,43.1,29.34,NE,45,0.4,2.5,89,0.13,,,0.26,WUHU216HW,2013-05-09 19:00:00,
2013-05-09 20:05:00,46.1,43.4,29.34,NE,45,1.6,2.0,90,0.12,,,0.26,WUHU216HW,2013-05-09 19:05:00,
2013-05-09 20:10:00,46.1,43.4,29.34,ESE,113,1.1,1.6,90,0.11,,,0.26,WUHU216HW,2013-05-09 19:10:00,
2013-05-09 20:15:00,46.1,43.4,29.34,East,90,0.9,1.6,90,0.11,,,0.27,WUHU216HW,2013-05-09 19:15:00,
2013-05-09 20:20:00,46.1,43.4,29.34,ESE,113,0.9,0.9,90,0.11,,,0.28,WUHU216HW,2013-05-09 19:20:00,
2013-05-09 20:25:00,46.1,43.4,29.34,West,270,1.1,1.1,90,0.11,,,0.29,WUHU216HW,2013-05-09 19:25:00,
2013-05-09 20:30:00,46.1,43.4,29.34,ENE,68,0.9,1.1,90,0.10,,,0.29,WUHU216HW,2013-05-09 19:30:00,
2013-05-09 20:35:00,46.1,43.4,29.34,East,90,1.8,1.8,90,0.09,,,0.29,WUHU216HW,2013-05-09 19:35:00,
2013-05-09 20:40:00,46.1,43.4,29.34,ESE,113,0.9,1.8,90,0.07,,,0.29,WUHU216HW,2013-05-09 19:40:00,
2013-05-09 20:45:00,45.9,43.2,29.34,ENE,68,1.8,1.8,90,0.07,,,0.30,WUHU216HW,2013-05-09 19:45:00,
2013-05-09 20:50:00,46.1,43.4,29.34,East,90,2.2,2.2,90,0.06,,,0.30,WUHU216HW,2013-05-09 19:50:00,
2013-05-09 20:55:00,45.9,43.2,29.34,ENE,68,1.6,2.2,90,0.05,,,0.30,WUHU216HW,2013-05-09 19:55:00,
2013-05-09 21:00:00,45.9,43.2,29.34,ESE,113,0.4,1.6,90,0.04,,,0.30,WUHU216HW,2013-05-09 20:00:00,
2013-05-09 21:05:00,45.9,43.2,29.34,ENE,68,1.8,1.8,90,0.04,,,0.30,WUHU216HW,2013-05-09 20:05:00,
2013-05-09 21:10:00,45.9,43.2,29.34,East,90,1.1,1.8,90,0.03,,,0.30,WUHU216HW,2013-05-09 20:10:00,
2013-05-09 21:15:00,45.9,43.2,29.34,ESE,113,0.7,1.8,90,0.03,,,0.30,WUHU216HW,2013-05-09 20:15:00,
2013-05-09 21:20:00,45.9,43.2,29.34,East,90,1.1,1.1,90,0.01,,,0.30,WUHU216HW,2013-05-09 20:20:00,
2013-05-09 21:25:00,46.1,43.4,29.35,ENE,68,1.3,1.3,90,0.01,,,0.30,WUHU216HW,2013-05-09 20:25:00,
2013-05-09 21:30:00,45.9,43.2,29.35,ESE,113,1.3,1.3,90,0.01,,,0.30,WUHU216HW,2013-05-09 20:30:00,
2013-05-09 21:35:00,45.9,43.2,29.35,SE,135,1.1,1.3,90,0.01,,,0.30,WUHU216HW,2013-05-09 20:35:00,
2013-05-09 21:40:00,45.9,43.2,29.35,East,90,2.5,2.5,90,0.00,,,0.30,WUHU216HW,2013-05-09 20:40:00,
2013-05-09 21:45:00,45.9,43.2,29.35,ESE,113,0.4,2.5,90,0.00,,,0.30,WUHU216HW,2013-05-09 20:45:00,
2013-05-09 21:50:00,45.9,43.2,29.35,ESE,113,1.8,1.8,90,0.00,,,0.30,WUHU216HW,2013-05-09 20:50:00,
2013-05-09 21:55:00,45.9,42.9,29.35,ESE,113,1.8,1.8,89,0.00,,,0.30,WUHU216HW,2013-05-09 20:55:00,
2013-05-09 22:00:00,45.9,42.9,29.35,SSE,158,1.8,1.8,89,0.00,,,0.30,WUHU216HW,2013-05-09 21:00:00,
2013-05-09 22:05:00,45.9,42.9,29.35,ESE,113,0.7,1.8,89,0.00,,,0.30,WUHU216HW,2013-05-09 21:05:00,
2013-05-09 22:10:00,45.9,42.9,29.36,East,90,0.9,1.8,89,0.00,,,0.30,WUHU216HW,2013-05-09 21:10:00,
2013-05-09 22:15:00,45.9,43.2,29.35,ENE,68,1.1,1.1,90,0.00,,,0.30,WUHU216HW,2013-05-09 21:15:00,
2013-05-09 22:20:00,45.9,42.9,29.36,ENE,68,0.0,1.1,89,0.00,,,0.30,WUHU216HW,2013-05-09 21:20:00,
2013-05-09 22:25:00,45.9,42.9,29.36,West,270,0.4,1.1,89,0.00,,,0.30,WUHU216HW,2013-05-09 21:25:00,
2013-05-09 22:30:00,45.7,42.8,29.36,West,270,0.0,0.4,89,0.00,,,0.30,WUHU216HW,2013-05-09 21:30:00,
2013-05-09 22:35:00,45.7,42.4,29.36,West,270,0.0,0.0,88,0.00,,,0.30,WUHU216HW,2013-05-09 21:35:00,
2013-05-09 22:40:00,45.7,42.8,29.36,West,270,0.2,0.2,89,0.00,,,0.30,WUHU216HW,2013-05-09 21:40:00,
2013-05-09 22:45:00,45.7,42.8,29.36,SSW,203,1.1,1.1,89,0.00,,,0.30,WUHU216HW,2013-05-09 21:45:00,
2013-05-09 22:50:00,45.7,42.8,29.37,West,270,0.9,1.1,89,0.00,,,0.30,WUHU216HW,2013-05-09 21:50:00,
2013-05-09 22:55:00,45.9,42.6,29.37,West,270,0.2,1.1,88,0.00,,,0.30,WUHU216HW,2013-05-09 21:55:00,
2013-05-09 23:00:00,45.9,42.6,29.37,West,270,0.7,0.9,88,0.00,,,0.30,WUHU216HW,2013-05-09 22:00:00,
2013-05-09 23:05:00,45.9,42.6,29.37,NNW,338,0.7,0.9,88,0.00,,,0.30,WUHU216HW,2013-05-09 22:05:00,
2013-05-09 23:10:00,45.9,42.6,29.37,SSE,158,0.4,0.9,88,0.00,,,0.30,WUHU216HW,2013-05-09 22:10:00,
2013-05-09 23:15:00,45.9,42.6,29.37,NNE,23,0.7,0.7,88,0.00,,,0.30,WUHU216HW,2013-05-09 22:15:00,
2013-05-09 23:20:00,45.9,42.6,29.37,WNW,293,2.0,2.0,88,0.00,,,0.30,WUHU216HW,2013-05-09 22:20:00,
2013-05-09 23:25:00,45.9,42.6,29.37,WSW,248,1.1,2.0,88,0.00,,,0.30,WUHU216HW,2013-05-09 22:25:00,
2013-05-09 23:30:00,45.9,42.3,29.36,SE,135,1.6,1.6,87,0.00,,,0.30,WUHU216HW,2013-05-09 22:30:00,
2013-05-09 23:35:00,45.9,42.3,29.36,SE,135,2.2,2.2,87,0.00,,,0.30,WUHU216HW,2013-05-09 22:35:00,
2013-05-09 23:40:00,45.9,42.3,29.36,SSE,158,1.8,2.2,87,0.00,,,0.30,WUHU216HW,2013-05-09 22:40:00,
2013-05-09 23:45:00,45.7,41.8,29.36,ESE,113,2.0,2.0,86,0.00,,,0.30,WUHU216HW,2013-05-09 22:45:00,
2013-05-09 23:50:00,45.7,41.8,29.36,ESE,113,0.9,2.0,86,0.00,,,0.30,WUHU216HW,2013-05-09 22:50:00,
2013-05-09 23:55:00,45.7,41.8,29.36,ESE,113,1.3,2.2,86,0.00,,,0.30,WUHU216HW,2013-05-09 22:55:00,